Tracking 34142 objects as of 18-May-2026
HD Live streaming from Space Station
objects crossing your sky now

KINEIS-4A

Track KINEIS-4A now!
10-day predictions


NORAD ID: 63303
Int'l Code: 2025-056D
Perigee: 659.0 km
Apogee: 662.4 km
Inclination: 97.9 °
Period: 97.8 minutes
Semi major axis: 7031 km
RCS: Unknown
Launch date: March 18, 2025
Source: France (FR)
Launch site: Rocket Lab Launch Complex (RLLC)
Your satellite tracking list
Your tracking list is empty




NASA's NSSDC Master Catalog

Two Line Element Set (TLE):
1 63303U 25056D   26137.85352740  .00000918  00000-0  15267-3 0  9998
2 63303  97.9068 262.7173 0002432  60.0146 300.1303 14.72348589 62663
Source of the keplerian elements: AFSPC